����27�N�x�@��C��������Ԃɂ�鑪�茋��,,,,,,,,,,,,,,
,,,,,,,,,,,,,,
�P�@����n�_,,,,,,,,,,,,,,
����s���h�i����s���h��6-3-5),,,,,,,,,,,,,,
,,,,,,,,,,,,,,
�Q�@���Ԓl�i�m��l�j������27�N5��21���`����27�N6��12��,,,,,,,,,,,,,,
,,,,,,,,,,,,,,
,�N,��,��,��,SO2,SPM,Ox,CO,NO,NO2,���x,���x,����,����
,,,,,ppm,mg/m3,ppm,ppm,ppm,ppm,��,%,�P�U����,m/s
H02,2015,5,21,1,***,0.021,0.056,***,***,***,12.7,93.5,NNE,1.3
H02,2015,5,21,2,0,0.012,0.056,0.2,0.001,0.01,13.2,90.4,WNW,1.7
H02,2015,5,21,3,0,0.012,0.043,0.2,0.002,0.019,13.5,84.9,WNW,1.9
H02,2015,5,21,4,0,0.021,0.038,0.2,0.003,0.015,13.2,85.9,NNW,2.8
H02,2015,5,21,5,0,0.023,0.032,0.2,0.005,0.018,13.2,81.1,NW,1.7
H02,2015,5,21,6,0,0.015,0.033,0.2,0.008,0.018,14.5,68.8,NNW,3.7
H02,2015,5,21,7,0,0.014,0.037,0.2,0.011,0.016,16.5,56.2,NNW,4.9
H02,2015,5,21,8,0,0.003,0.042,0.2,0.007,0.012,17.9,47.2,NW,4.5
H02,2015,5,21,9,0,0.011,0.043,0.2,0.009,0.012,19.4,42,NW,4
H02,2015,5,21,10,0,0.018,0.044,0.2,0.009,0.012,21.1,36.8,NW,4.3
H02,2015,5,21,11,0,0.017,0.044,0.2,0.01,0.014,23,38.9,NW,3
H02,2015,5,21,12,0,0.013,0.046,0.2,0.008,0.013,24.6,34,NW,3.2
H02,2015,5,21,13,0,0.017,0.049,0.2,0.006,0.01,25.2,29.6,NW,5.1
H02,2015,5,21,14,0,0.016,0.047,0.2,0.007,0.013,25.4,28.4,NW,4.7
H02,2015,5,21,15,0,0.005,0.047,0.2,0.007,0.013,25.4,31.7,NW,5.5
H02,2015,5,21,16,0,0.012,0.047,0.2,0.006,0.012,25.2,30.2,NW,3.9
H02,2015,5,21,17,0,0.009,0.046,0.2,0.007,0.014,23.8,31.7,NW,4.4
H02,2015,5,21,18,0,0.005,0.043,0.2,0.004,0.014,21.8,36.8,NW,4
H02,2015,5,21,19,0,0.011,0.042,0.2,0.004,0.014,20.6,37.3,NW,3.8
H02,2015,5,21,20,0,0.013,0.039,0.2,0.005,0.015,19.8,37.8,NW,3.1
H02,2015,5,21,21,0,0.007,0.042,0.2,0.004,0.011,19.1,37.5,NNW,3.3
H02,2015,5,21,22,0,0.019,0.04,0.2,0.002,0.013,18.2,43.2,NE,1.2
H02,2015,5,21,23,0,0.017,0.04,0.2,0.002,0.014,18,43.9,N,1.5
H02,2015,5,21,24,0,0.011,0.024,0.2,0.004,0.027,16.7,51.5,CALM,0.2
H02,2015,5,22,1,0,0.014,0.012,0.3,0.011,0.038,16.1,52.6,NW,1.2
H02,2015,5,22,2,0.001,0.022,0.008,0.3,0.009,0.04,14.7,62.1,N,1.7
H02,2015,5,22,3,0.001,0.014,0.02,0.3,0.003,0.019,13.8,67.4,N,2.2
H02,2015,5,22,4,0.003,0.019,0.017,0.3,0.005,0.018,13.5,68.2,NNE,0.9
H02,2015,5,22,5,0,0.02,0.01,0.2,0.01,0.019,12.9,73.7,NNW,0.9
H02,2015,5,22,6,0,0.007,0.008,0.2,0.011,0.02,13.4,70.5,CALM,0.2
H02,2015,5,22,7,0,0.013,0.014,0.3,0.008,0.017,15.3,60.9,NNW,0.6
H02,2015,5,22,8,0.001,0.017,0.009,0.4,0.028,0.025,16.7,63,E,0.9
H02,2015,5,22,9,0.001,0.009,0.014,0.3,0.025,0.027,18.8,52.6,E,1.4
H02,2015,5,22,10,0.001,0.023,0.021,0.3,0.022,0.029,20.6,44,NNW,0.9
H02,2015,5,22,11,0.001,0.022,0.042,0.3,0.008,0.018,22.7,39.3,S,0.7
H02,2015,5,22,12,0.002,0.011,0.057,0.3,0.002,0.012,24.5,40.9,SSW,1.1
H02,2015,5,22,13,0.001,0.021,0.071,0.3,0.001,0.007,24.8,35.1,SW,1.1
H02,2015,5,22,14,0.002,0.017,0.07,0.3,0.002,0.01,25.7,32,WSW,1.1
H02,2015,5,22,15,0.001,0.02,0.076,0.3,0.001,0.008,26.5,32.7,S,1.1
H02,2015,5,22,16,0.002,0.021,0.076,0.2,0,0.006,25.8,43.9,SSE,1.8
H02,2015,5,22,17,0.001,0.011,0.071,0.2,0,0.005,24.1,44,SSE,2.4
H02,2015,5,22,18,0.001,0.016,0.067,0.2,0,0.006,21.9,52.9,SSE,1.7
H02,2015,5,22,19,0.001,0.013,0.065,0.2,0,0.007,20,60.3,SSE,2.3
H02,2015,5,22,20,0.001,0.023,0.058,0.3,0,0.009,19.3,61.6,SSE,0.9
H02,2015,5,22,21,0.001,0.019,0.05,0.3,0,0.014,19.2,59.5,SE,0.4
H02,2015,5,22,22,0.001,0.022,0.029,0.4,0.005,0.034,18.5,62.4,ENE,1.4
H02,2015,5,22,23,0.001,0.021,0.034,0.3,0.004,0.025,17.9,64.1,E,1.3
H02,2015,5,22,24,0,0.02,0.025,0.3,0.004,0.028,16.7,71.6,ENE,1.2
H02,2015,5,23,1,0,0.021,0.019,0.3,0.004,0.029,16.2,72.6,E,1.4
H02,2015,5,23,2,0,0.02,0.023,0.3,0.003,0.023,15.9,74,NNE,0.8
H02,2015,5,23,3,0,0.022,0.031,0.3,0.003,0.015,15.5,71,N,1.9
H02,2015,5,23,4,0.001,0.021,0.028,0.3,0.003,0.016,15,73.6,NE,0.4
H02,2015,5,23,5,0,0.031,0.016,0.3,0.009,0.025,14.9,76.8,NNE,0.6
H02,2015,5,23,6,0.001,0.016,0.017,0.3,0.007,0.022,15.5,71.6,NNW,0.8
H02,2015,5,23,7,0.001,0.022,0.029,0.3,0.006,0.014,17.4,65.2,NW,1.2
H02,2015,5,23,8,0.001,0.03,0.031,0.3,0.008,0.017,19.2,61.7,NNE,0.7
H02,2015,5,23,9,0.001,0.027,0.04,0.3,0.004,0.017,20.8,54.2,NNW,0.8
H02,2015,5,23,10,0.001,0.027,0.046,0.4,0.006,0.023,21.6,51.7,N,1.3
H02,2015,5,23,11,0.002,0.04,0.052,0.4,0.004,0.019,23.6,45.8,NNW,1
H02,2015,5,23,12,0.001,0.026,0.067,0.3,0.002,0.013,25.2,43.2,SW,0.6
H02,2015,5,23,13,0.001,0.019,0.08,0.3,0.001,0.009,25.6,35,W,1.2
H02,2015,5,23,14,0.001,0.024,0.089,0.3,0,0.009,25.8,38.5,SSW,1.9
H02,2015,5,23,15,0.008,0.044,0.075,0.6,0.001,0.019,25.1,47.4,SSE,1.1
H02,2015,5,23,16,0.006,0.027,0.079,0.5,0.001,0.013,25.2,42.1,S,1.5
H02,2015,5,23,17,0.004,0.04,0.075,0.4,0,0.012,23.7,42.8,S,1.8
H02,2015,5,23,18,0.002,0.025,0.072,0.3,0,0.009,21.9,57.9,SSE,1.6
H02,2015,5,23,19,0.002,0.026,0.069,0.3,0,0.008,20.4,60.6,SSE,1.3
H02,2015,5,23,20,0.002,0.021,0.064,0.3,0,0.009,20.3,66.6,SE,0.5
H02,2015,5,23,21,0.003,0.041,0.051,0.4,0,0.013,19.3,74.6,SE,1.1
H02,2015,5,23,22,0.003,0.036,0.052,0.4,0,0.011,18.7,77.3,SSE,1.9
H02,2015,5,23,23,0.003,0.027,0.053,0.3,0.001,0.013,19.3,68.4,SE,1
H02,2015,5,23,24,0.003,0.029,0.054,0.3,0,0.011,19,70.8,SE,1.1
H02,2015,5,24,1,0.002,0.03,0.054,0.3,0,0.007,18.8,80.1,SE,1.2
H02,2015,5,24,2,0.002,0.018,0.048,0.2,0,0.006,18.8,69.2,SSE,2.1
H02,2015,5,24,3,0,0.011,0.052,0.2,0,0.002,18.5,65.3,SE,0.9
H02,2015,5,24,4,0,0.009,0.05,0.2,0,0.005,18.3,65.4,SE,0.7
H02,2015,5,24,5,0.001,0.009,0.041,0.2,0.001,0.011,17.7,72.5,E,1.1
H02,2015,5,24,6,0.001,0.008,0.036,0.2,0.001,0.012,18.2,70.5,SE,0.6
H02,2015,5,24,7,0.001,0.014,0.036,0.2,0.002,0.011,19.6,67.9,SSE,1.1
H02,2015,5,24,8,0.001,0.018,0.05,0.2,0,0.004,20.7,62,SSE,1.3
H02,2015,5,24,9,0,0.017,0.059,0.2,0,0.002,21.8,55,S,1.1
H02,2015,5,24,10,0,0.01,0.062,0.2,0,0.002,23.2,50.3,SSE,1
H02,2015,5,24,11,0,0.01,0.067,0.2,0,0.003,24.5,49.9,ENE,0.9
H02,2015,5,24,12,0.001,0.012,0.073,0.2,0,0.003,26.6,39.9,W,1.4
H02,2015,5,24,13,0.001,0.007,0.077,0.2,0,0.003,26.2,43.4,NNE,0.8
H02,2015,5,24,14,0.002,0.019,0.076,0.2,0,0.003,26.9,46.8,S,2.3
H02,2015,5,24,15,0.002,0.012,0.073,0.2,0,0.004,26.6,45.5,S,2.5
H02,2015,5,24,16,0.002,0.007,0.075,0.2,0,0.003,25.3,50.5,SSE,3
H02,2015,5,24,17,0.001,0.014,0.07,0.2,0,0.002,24.3,54.7,SSE,2.4
H02,2015,5,24,18,0.001,0.012,0.069,0.2,0,0.003,21.9,60.3,SSE,3.2
H02,2015,5,24,19,0.001,0.01,0.063,0.2,0,0.003,19.8,63.3,SSE,2.2
H02,2015,5,24,20,0.001,0.011,0.06,0.2,0,0.004,19,74.9,SSE,1.1
H02,2015,5,24,21,0.001,0.017,0.055,0.2,0,0.005,18.6,78.1,SSE,1
H02,2015,5,24,22,0.001,0.01,0.053,0.2,0,0.005,18.5,78.9,S,0.5
H02,2015,5,24,23,0.001,0.01,0.047,0.2,0,0.006,18.2,81.1,S,0.3
H02,2015,5,24,24,0.001,0.009,0.047,0.2,0,0.005,18.3,81.6,CALM,0.1
H02,2015,5,25,1,0.001,0.009,0.041,0.2,0.001,0.008,17.4,83,NE,0.7
H02,2015,5,25,2,0,0.011,0.016,0.2,0.002,0.021,17.3,82.9,E,0.9
H02,2015,5,25,3,0,0.017,0.02,0.2,0.004,0.016,16.9,84.5,CALM,0.2
H02,2015,5,25,4,0,0.014,0.01,0.2,0.007,0.021,16.4,86.8,E,0.8
H02,2015,5,25,5,0,0.015,0.004,0.2,0.012,0.022,16.4,87.4,E,0.7
H02,2015,5,25,6,0,0.026,0.007,0.3,0.017,0.019,17.6,80.8,E,0.9
H02,2015,5,25,7,0.001,0.023,0.011,0.3,0.02,0.021,19.6,74.7,E,0.9
H02,2015,5,25,8,0.001,0.028,0.016,0.3,0.015,0.022,20.6,68.3,S,0.7
H02,2015,5,25,9,0.001,0.027,0.032,0.3,0.004,0.015,22.5,65.2,ESE,0.9
H02,2015,5,25,10,0.001,0.022,0.05,0.3,0.001,0.007,23.6,60.7,SSE,1.6
H02,2015,5,25,11,0.002,0.014,0.065,0.3,0.001,0.005,26.1,50.7,SSE,2
H02,2015,5,25,12,0.002,0.014,0.074,0.3,0,0.004,27.3,50.5,SW,1.6
H02,2015,5,25,13,0.001,0.022,0.075,0.2,0,0.004,26.8,52.1,SSE,2
H02,2015,5,25,14,0.001,0.02,0.079,0.2,0,0.005,25.7,54.7,S,2
H02,2015,5,25,15,0.001,0.014,0.073,0.2,0,0.004,25.4,56.1,SSE,2.4
H02,2015,5,25,16,0.001,0.01,0.068,0.2,0,0.004,24.6,59.7,SSE,1.8
H02,2015,5,25,17,0.001,0.015,0.065,0.2,0,0.004,24.2,61.1,SSE,2.2
H02,2015,5,25,18,0.001,0.015,0.064,0.2,0.001,0.005,23.1,65.1,SSW,1.3
H02,2015,5,25,19,0.001,0.019,0.064,0.2,0,0.005,21.8,70.3,SSW,0.7
H02,2015,5,25,20,0.001,0.019,0.065,0.3,0,0.005,21.1,72.6,WSW,1.4
H02,2015,5,25,21,0.002,0.025,0.064,0.2,0,0.006,21,74.1,WSW,0.7
H02,2015,5,25,22,0.002,0.021,0.06,0.3,0,0.006,20.7,75.9,WSW,0.8
H02,2015,5,25,23,0.002,0.021,0.053,0.2,0,0.006,20,80.8,WSW,0.5
H02,2015,5,25,24,0.001,0.02,0.046,0.2,0,0.005,19.7,80.2,WNW,0.6
H02,2015,5,26,1,0.002,0.024,0.043,0.2,0,0.007,19.8,79.4,W,0.4
H02,2015,5,26,2,0.002,0.011,0.032,0.2,0.003,0.02,19.4,83.1,ENE,1.1
H02,2015,5,26,3,0.001,0.028,0.005,0.3,0.016,0.032,18.2,87.5,E,1.1
H02,2015,5,26,4,0.001,0.025,0.004,0.3,0.011,0.03,17.7,89.8,WSW,0.4
H02,2015,5,26,5,0.001,0.02,0.003,0.3,0.018,0.032,17.6,89.4,E,1.4
H02,2015,5,26,6,0.001,0.023,0.006,0.3,0.023,0.027,18.5,85.2,N,0.7
H02,2015,5,26,7,0.001,0.03,0.011,0.3,0.027,0.025,21,73.4,N,1
H02,2015,5,26,8,0.002,0.026,0.029,0.4,0.011,0.02,22.4,65.8,NNW,1.4
H02,2015,5,26,9,0.002,0.015,0.038,0.3,0.009,0.018,24.8,57.8,NNW,2.1
H02,2015,5,26,10,0.001,0.014,0.048,0.3,0.009,0.021,26.5,47.2,NNW,2.1
H02,2015,5,26,11,0.001,0.024,0.059,0.3,0.007,0.02,28.5,42.6,NW,2.4
H02,2015,5,26,12,0.001,0.028,0.071,0.2,0.003,0.016,29.3,41,NW,2.6
H02,2015,5,26,13,0.001,0.019,0.075,0.2,0.003,0.014,31.1,32.1,NW,3
H02,2015,5,26,14,0.001,0.012,0.07,0.2,0.005,0.017,32,30.5,NNW,2.4
H02,2015,5,26,15,0.001,0.015,0.072,0.2,0.003,0.012,32.1,27.8,NW,3.4
H02,2015,5,26,16,0.001,0.024,0.068,0.2,0.004,0.015,32.1,26.3,NW,2.3
H02,2015,5,26,17,0.003,0.026,0.069,0.3,0.001,0.011,31,26.5,WNW,2.3
H02,2015,5,26,18,0.004,0.026,0.061,0.5,0.001,0.015,28.9,27.7,WNW,1.7
H02,2015,5,26,19,0.004,0.022,0.051,0.4,0.001,0.02,27.5,27.9,WNW,1.1
H02,2015,5,26,20,0.005,0.021,0.04,0.5,0.001,0.025,26.1,31.2,WNW,0.8
H02,2015,5,26,21,0.003,0.04,0.039,0.4,0.001,0.02,23.9,40.3,SSW,0.6
H02,2015,5,26,22,0.002,0.02,0.032,0.3,0.001,0.025,23,44.5,SSW,0.5
H02,2015,5,26,23,0.002,0.023,0.016,0.4,0.01,0.039,21.7,51.9,CALM,0.2
H02,2015,5,26,24,0.001,0.019,0.016,0.3,0.004,0.035,21,55.2,W,0.6
H02,2015,5,27,1,***,0.03,0.003,***,***,***,19.7,62,ENE,0.7
H02,2015,5,27,2,0.001,0.032,0.003,0.3,0.014,0.042,17.9,73.3,E,1.8
H02,2015,5,27,3,0,0.035,0.011,0.3,0.009,0.025,17.7,74,NNE,0.6
H02,2015,5,27,4,0.001,0.032,0.01,0.3,0.009,0.026,17.3,74.4,N,1.7
H02,2015,5,27,5,0,0.029,0.008,0.3,0.01,0.024,15.6,82.6,ENE,1.6
H02,2015,5,27,6,0,0.03,0.008,0.3,0.013,0.023,17.6,73.7,WSW,0.4
H02,2015,5,27,7,0.001,0.034,0.017,0.3,0.022,0.025,20.4,62.1,NNW,1.2
H02,2015,5,27,8,0,0.035,0.029,0.3,0.012,0.022,23,52,NW,1.6
H02,2015,5,27,9,0.001,0.029,0.042,0.3,0.009,0.023,26.1,35.7,NNW,2.1
H02,2015,5,27,10,0.001,0.023,0.055,0.3,0.009,0.023,28.2,30.8,NW,2.4
H02,2015,5,27,11,0.001,0.02,0.073,0.3,0.006,0.024,29.9,25.9,NW,2
H02,2015,5,27,12,0.001,0.025,0.085,0.3,0.004,0.021,31.7,20.5,WNW,1.7
H02,2015,5,27,13,0.001,0.022,0.094,0.2,0.002,0.015,32.4,22.1,W,1.3
H02,2015,5,27,14,0.003,0.027,0.097,0.4,0.002,0.015,33.1,21.8,W,1.7
H02,2015,5,27,15,0.003,0.027,0.116,0.4,0.001,0.008,33.5,24.2,W,2
H02,2015,5,27,16,0.002,0.037,0.113,0.3,0,0.007,33.2,24.4,WSW,1.3
H02,2015,5,27,17,0.002,0.028,0.103,0.2,0,0.008,30.6,33.2,S,2.1
H02,2015,5,27,18,0.001,0.024,0.09,0.2,0.001,0.007,27.2,45.2,SSE,2.9
H02,2015,5,27,19,0.002,0.025,0.084,0.2,0,0.008,25.1,50.5,SSE,2.1
H02,2015,5,27,20,0.002,0.038,0.076,0.3,0.001,0.012,24,51.2,SE,1.5
H02,2015,5,27,21,0.002,0.029,0.07,0.3,0.001,0.012,22.7,58.8,SE,0.9
H02,2015,5,27,22,0.002,0.034,0.068,0.2,0.001,0.013,22.2,58,SE,1.3
H02,2015,5,27,23,0.002,0.037,0.062,0.2,0.001,0.016,21.5,59.7,SE,0.9
H02,2015,5,27,24,0.002,0.032,0.065,0.3,0.001,0.013,20.8,61.2,SSE,0.7
H02,2015,5,28,1,0.001,0.039,0.058,0.2,0.001,0.013,20.3,62.7,SSE,0.4
H02,2015,5,28,2,0.001,0.03,0.052,0.2,0.002,0.02,20,62.3,ESE,0.7
H02,2015,5,28,3,0.001,0.033,0.019,0.3,0.007,0.043,18.6,73.4,ENE,0.7
H02,2015,5,28,4,0,0.041,0.009,0.3,0.01,0.044,18.3,73,E,0.5
H02,2015,5,28,5,0.001,0.041,0.012,0.3,0.015,0.049,18.8,72.4,SE,0.6
H02,2015,5,28,6,0.001,0.032,0.034,0.3,0.007,0.037,20.4,73.5,SSE,0.6
H02,2015,5,28,7,0.001,0.028,0.062,0.2,0.001,0.014,22.2,65.2,SE,2.3
H02,2015,5,28,8,0.001,0.034,0.066,0.2,0.001,0.007,24.4,62.9,SE,2.3
H02,2015,5,28,9,0.001,0.032,0.07,0.3,0.001,0.007,25.4,59,SE,2.4
H02,2015,5,28,10,0.001,0.032,0.074,0.3,0.001,0.005,26,60.5,SSE,2.3
H02,2015,5,28,11,0.001,0.041,0.078,0.3,0.001,0.004,26.2,60.6,SSE,2.4
H02,2015,5,28,12,0.001,0.04,0.079,0.2,0.001,0.004,27.4,55.5,SSE,3.5
H02,2015,5,28,13,0.001,0.031,0.082,0.2,0,0.003,28.4,51.5,SSE,3.1
H02,2015,5,28,14,0.001,0.042,0.074,0.2,0,0.003,27.3,55.4,SSE,2.4
H02,2015,5,28,15,0.001,0.026,0.072,0.2,0.001,0.003,26.3,55.2,SSE,2.8
H02,2015,5,28,16,0.002,0.021,0.066,0.2,0.001,0.003,25.7,58.4,SSE,2.3
H02,2015,5,28,17,0.002,0.031,0.061,0.2,0.001,0.003,24.2,65,SSE,2.9
H02,2015,5,28,18,0.002,0.028,0.055,0.2,0.001,0.004,23.1,72.6,SSE,2.1
H02,2015,5,28,19,0.001,0.035,0.051,0.2,0.001,0.004,21.6,77.6,SSE,3.1
H02,2015,5,28,20,0.001,0.027,0.046,0.2,0.001,0.005,21.5,75.9,SSE,1.6
H02,2015,5,28,21,0.001,0.026,0.045,0.2,0.001,0.006,21.2,75.9,SSE,0.9
H02,2015,5,28,22,0.001,0.03,0.043,0.2,0.001,0.006,20.9,75.9,SSE,1.8
H02,2015,5,28,23,0,0.025,0.042,0.2,0.001,0.008,20.7,73.2,SE,1
H02,2015,5,28,24,0,0.026,0.039,0.2,0.001,0.009,20.5,74.5,CALM,0.2
H02,2015,5,29,1,0,0.024,0.038,0.2,0.001,0.009,20.2,77.7,SSE,0.6
H02,2015,5,29,2,0,0.026,0.03,0.2,0.002,0.015,20.2,73.5,ESE,0.7
H02,2015,5,29,3,0.001,0.026,0.024,0.2,0.005,0.021,20,75.6,NNE,0.8
H02,2015,5,29,4,0,0.03,0.02,0.2,0.003,0.02,19.5,77.5,S,0.5
H02,2015,5,29,5,0,0.027,0.005,0.3,0.014,0.036,19.6,78.5,E,0.7
H02,2015,5,29,6,0,0.033,0.006,0.3,0.027,0.036,20.3,76.8,NE,0.6
H02,2015,5,29,7,0.001,0.032,0.007,0.3,0.035,0.037,21.3,78,NW,1
H02,2015,5,29,8,0.002,0.033,0.027,0.3,0.008,0.02,22.5,73.5,NNW,1
H02,2015,5,29,9,0.001,0.037,0.032,0.3,0.009,0.018,22.9,70.7,NNW,0.7
H02,2015,5,29,10,0.001,0.037,0.035,0.3,0.009,0.021,24,66.9,NNW,1.6
H02,2015,5,29,11,0.001,0.05,0.048,0.3,0.005,0.016,25.2,61,NW,1
H02,2015,5,29,12,0.001,0.043,0.063,0.3,0.002,0.012,26.1,59.6,SW,1.3
H02,2015,5,29,13,0.005,0.046,0.056,0.4,0.006,0.022,26.3,57.6,WNW,1.2
H02,2015,5,29,14,0.006,0.047,0.063,0.5,0.005,0.023,27.3,57.4,NW,1.6
H02,2015,5,29,15,0.005,0.041,0.076,0.4,0.003,0.018,29.4,44.4,WNW,1.3
H02,2015,5,29,16,0.002,0.034,0.086,0.3,0.001,0.013,28.1,46.3,WNW,1.6
H02,2015,5,29,17,0.002,0.03,0.093,0.3,0.001,0.008,28.7,44.2,S,1.2
H02,2015,5,29,18,0.004,0.042,0.087,0.3,0.001,0.009,26.6,50.2,S,0.6
H02,2015,5,29,19,0.004,0.026,0.084,0.3,0,0.01,24.6,59,SSW,1.1
H02,2015,5,29,20,0.002,0.041,0.077,0.3,0.001,0.011,23.1,67.6,SSE,1.1
H02,2015,5,29,21,0.002,0.033,0.067,0.3,0.001,0.011,22.9,64.3,S,0.5
H02,2015,5,29,22,0.002,0.037,0.049,0.3,0.002,0.022,22.5,66.2,SE,0.8
H02,2015,5,29,23,0.002,0.038,0.036,0.4,0.005,0.033,22,67.7,E,2
H02,2015,5,29,24,0.001,0.036,0.032,0.4,0.005,0.033,21.5,71.7,NNE,0.6
H02,2015,5,30,1,0.001,0.039,0.029,0.4,0.005,0.032,20.5,76.8,E,1.3
H02,2015,5,30,2,0.001,0.038,0.028,0.4,0.005,0.027,20,79.3,NE,0.8
H02,2015,5,30,3,0.001,0.036,0.016,0.3,0.006,0.033,19.5,80.7,E,1.2
H02,2015,5,30,4,0.001,0.04,0.007,0.4,0.011,0.041,19.2,81.4,E,1
H02,2015,5,30,5,0,0.034,0.004,0.3,0.015,0.04,18.9,83.6,CALM,0.2
H02,2015,5,30,6,0,0.039,0.011,0.3,0.012,0.028,19.8,78.2,NNE,0.5
H02,2015,5,30,7,0.001,0.039,0.02,0.4,0.009,0.024,22.1,73.3,E,0.7
H02,2015,5,30,8,0.002,0.043,0.034,0.4,0.006,0.016,24,61.8,N,0.8
H02,2015,5,30,9,0.002,0.042,0.056,0.4,0.004,0.015,26,51.8,NW,1.7
H02,2015,5,30,10,0.002,0.034,0.078,0.3,0.002,0.014,28.2,45.1,NW,1.1
H02,2015,5,30,11,0.002,0.03,0.093,0.3,0.001,0.012,30.2,39.7,W,1.4
H02,2015,5,30,12,0.004,0.04,0.097,0.6,0.002,0.014,31.2,37.1,WSW,1.6
H02,2015,5,30,13,0.004,0.037,0.102,0.5,0.001,0.01,32.7,34.2,W,1.9
H02,2015,5,30,14,0.002,0.029,0.1,0.3,0.001,0.005,33.3,28.8,WNW,3.1
H02,2015,5,30,15,0.002,0.033,0.089,0.3,0.001,0.009,33.9,27.3,NW,2.8
H02,2015,5,30,16,0.001,0.03,0.076,0.3,0.002,0.01,33.2,27,WNW,3.1
H02,2015,5,30,17,0,0.035,0.073,0.2,0.001,0.009,31.3,29.5,NW,2.2
H02,2015,5,30,18,0,0.014,0.064,0.3,0.001,0.013,30.5,29.8,NW,1.7
H02,2015,5,30,19,0.001,0.03,0.065,0.3,0.001,0.014,29,33.5,NNW,2.3
H02,2015,5,30,20,0.001,0.019,0.06,0.3,0.002,0.016,28.1,36.2,NW,2.2
H02,2015,5,30,21,0.001,0.036,0.055,0.3,0.001,0.016,26.9,39.8,NNW,2
H02,2015,5,30,22,0.001,0.036,0.058,0.3,0.001,0.011,26,43,NNW,2.3
H02,2015,5,30,23,0.001,0.033,0.061,0.3,0.001,0.009,25.5,45.6,NW,1.8
H02,2015,5,30,24,0.001,0.037,0.059,0.3,0.001,0.009,24.8,46.7,NNW,1.6
H02,2015,5,31,1,0.001,0.037,0.055,0.3,0.001,0.01,24,51.8,NNW,1.4
H02,2015,5,31,2,0.001,0.037,0.049,0.3,0.001,0.012,23.6,57,N,0.5
H02,2015,5,31,3,0.001,0.03,0.046,0.3,0.001,0.012,23.8,53.2,NNW,0.6
H02,2015,5,31,4,0.001,0.026,0.041,0.3,0.001,0.015,23.4,55.2,NW,1.2
H02,2015,5,31,5,0.001,0.028,0.041,0.3,0.001,0.014,23.4,56.3,NNW,1.5
H02,2015,5,31,6,0.001,0.03,0.053,0.3,0.001,0.008,23.1,59.7,NNW,2.4
H02,2015,5,31,7,0.001,0.027,0.058,0.3,0.002,0.009,25,54.1,NW,2.5
H02,2015,5,31,8,0.001,0.032,0.061,0.2,0.002,0.008,25.9,52.9,NW,2.9
H02,2015,5,31,9,0,0.016,0.064,0.2,0.001,0.005,26.7,50.4,NW,4.2
H02,2015,5,31,10,0,0.006,0.065,0.2,0.001,0.005,28,44.5,NNW,4.5
H02,2015,5,31,11,0,0.013,0.067,0.2,0.001,0.004,29.7,40.1,NW,3.3
H02,2015,5,31,12,0,0.02,0.07,0.2,0.001,0.004,30.9,38.1,NW,3.4
H02,2015,5,31,13,0,0.025,0.069,0.2,0.001,0.004,31.6,32.4,NW,4.7
H02,2015,5,31,14,0,0.011,0.067,0.2,0.001,0.004,31.3,31.8,NW,3.4
H02,2015,5,31,15,0,0.018,0.064,0.2,0.001,0.004,30.5,32.9,NW,3.2
H02,2015,5,31,16,0,0.015,0.061,0.2,0.001,0.004,29.8,34.7,NW,2.9
H02,2015,5,31,17,0,0.013,0.057,0.2,0.001,0.006,29.7,35.3,NW,2.8
H02,2015,5,31,18,0,0.019,0.053,0.2,0.002,0.008,27.6,40.7,NW,2.6
H02,2015,5,31,19,0,0.024,0.05,0.2,0.001,0.009,26.6,43.9,NW,1.9
H02,2015,5,31,20,0,0.022,0.047,0.2,0.001,0.01,25.6,46.8,WNW,1.2
H02,2015,5,31,21,0,0.017,0.044,0.2,0.001,0.009,23.8,57.9,WSW,0.4
H02,2015,5,31,22,0.001,0.022,0.04,0.2,0.001,0.008,22.5,63,CALM,0.2
H02,2015,5,31,23,0.001,0.018,0.041,0.2,0.001,0.009,23.1,55.3,NNW,1.6
H02,2015,5,31,24,0.001,0.025,0.039,0.2,0.001,0.01,22.4,59,N,1.2
H02,2015,6,1,1,0,0.025,0.034,0.2,0.001,0.012,21.6,62.2,NNW,1.4
H02,2015,6,1,2,0,0.025,0.029,0.2,0.001,0.011,21.1,66.3,CALM,0
H02,2015,6,1,3,0,0.018,0.024,0.2,0.001,0.012,19.8,77.7,SE,1
H02,2015,6,1,4,0.002,0.026,0.016,0.3,0.002,0.017,19.8,79.8,SE,0.7
H02,2015,6,1,5,0.002,0.027,0.018,0.3,0.001,0.015,19.6,83,SSE,0.8
H02,2015,6,1,6,0.002,0.019,0.016,0.4,0.004,0.018,20.7,77.2,S,0.6
H02,2015,6,1,7,0.003,0.027,0.017,0.4,0.012,0.025,22.2,63.8,NNW,0.9
H02,2015,6,1,8,0.004,0.033,0.015,0.4,0.016,0.033,22.5,63.3,NNW,1
H02,2015,6,1,9,0.004,0.04,0.011,0.4,0.023,0.041,23.1,65.9,E,1.2
H02,2015,6,1,10,0.003,0.03,0.024,0.4,0.012,0.03,24.3,63.3,S,0.6
H02,2015,6,1,11,0.001,0.029,0.052,0.3,0.003,0.011,26.9,58.1,S,1.7
H02,2015,6,1,12,0,0.03,0.07,0.2,0.001,0.004,27.9,53.6,SSE,2.3
H02,2015,6,1,13,0,0.02,0.068,0.2,0.001,0.002,27.5,53,SSE,3.1
H02,2015,6,1,14,0,0.023,0.06,0.2,0.001,0.004,27.4,54.7,SSE,3.2
H02,2015,6,1,15,0,0.024,0.059,0.2,0.001,0.003,27.9,52.3,SSE,3.9
H02,2015,6,1,16,0.001,0.024,0.06,0.2,0.001,0.002,26.7,55.1,SSE,3.7
H02,2015,6,1,17,0.001,0.016,0.06,0.2,0.001,0.003,25.5,56,SSE,3.8
H02,2015,6,1,18,0.001,0.017,0.058,0.2,0.001,0.004,23.6,56.4,SSE,3.3
H02,2015,6,1,19,0.001,0.011,0.056,0.2,0,0.004,22.8,58.1,SSE,1.7
H02,2015,6,1,20,0.001,0.018,0.05,0.2,0,0.007,21.9,62.9,SSE,0.8
H02,2015,6,1,21,0.001,0.019,0.044,0.2,0.001,0.009,21.3,66.6,SSE,0.6
H02,2015,6,1,22,0.001,0.016,0.041,0.2,0.001,0.01,20.8,69.4,SSE,0.5
H02,2015,6,1,23,0.002,0.024,0.041,0.2,0.001,0.01,20.8,68.1,SSE,0.3
H02,2015,6,1,24,0.001,0.018,0.02,0.2,0.004,0.026,19.8,70.7,S,0.3
H02,2015,6,2,1,***,0.024,0.013,***,***,***,19.1,73.9,S,0.5
H02,2015,6,2,2,0,0.024,0.011,0.2,0.009,0.029,18.6,75,E,0.8
H02,2015,6,2,3,0,0.018,0.007,0.3,0.007,0.033,18.1,78.3,E,0.9
H02,2015,6,2,4,0,0.017,0.007,0.2,0.01,0.031,17.6,79.5,E,1.7
H02,2015,6,2,5,0,0.022,0.01,0.2,0.01,0.024,17.4,81.9,NE,0.8
H02,2015,6,2,6,0,0.018,0.007,0.3,0.022,0.026,19,77.6,E,1
H02,2015,6,2,7,0.001,0.027,0.017,0.3,0.014,0.019,21.3,66.3,NNW,0.8
H02,2015,6,2,8,0.002,0.024,0.026,0.3,0.01,0.016,24,56.6,N,1.5
H02,2015,6,2,9,0.002,0.017,0.043,0.3,0.007,0.017,24.3,55.3,WSW,0.5
H02,2015,6,2,10,0.002,0.026,0.058,0.2,0.002,0.008,26.7,51,S,1.2
H02,2015,6,2,11,0.002,0.039,0.067,0.2,0.001,0.007,28.5,53.4,S,1.8
H02,2015,6,2,12,0.001,0.022,0.065,0.2,0.001,0.004,28.1,55.3,S,2.2
H02,2015,6,2,13,0,0.024,0.056,0.2,0.001,0.003,26.6,60.5,S,2
H02,2015,6,2,14,0,0.016,0.055,0.2,0.001,0.002,26.9,61.7,SSE,2.9
H02,2015,6,2,15,0,0.027,0.054,0.2,0.001,0.003,26.9,59.4,S,2.8
H02,2015,6,2,16,0,0.023,0.051,0.2,0.001,0.002,26.6,62.4,SSE,2.4
H02,2015,6,2,17,0,0.022,0.047,0.2,0.001,0.002,25.8,68.1,SSE,2.4
H02,2015,6,2,18,0,0.02,0.044,0.2,0,0.002,24,74.6,SSE,2.7
H02,2015,6,2,19,0,0.019,0.042,0.2,0,0.003,22.9,80.7,SSE,2.5
H02,2015,6,2,20,0,0.016,0.041,0.2,0,0.004,22.5,83.2,SSE,2
H02,2015,6,2,21,0,0.024,0.04,0.2,0.001,0.004,22.4,84.8,SSE,2.5
H02,2015,6,2,22,0,0.026,0.042,0.2,0,0.003,22.2,86.3,SSE,2.2
H02,2015,6,2,23,0,0.027,0.044,0.2,0,0.003,22.1,86.5,SSE,2.1
H02,2015,6,2,24,0,0.016,0.04,0.2,0,0.003,21.9,87.4,SSE,1.4
H02,2015,6,3,1,0,0.022,0.042,0.2,0,0.003,21.8,87.3,SE,0.6
H02,2015,6,3,2,0,0.025,0.036,0.2,0.001,0.007,21.8,86,SE,0.8
H02,2015,6,3,3,0,0.019,0.034,0.2,0.001,0.007,21.5,90.6,SSE,0.7
H02,2015,6,3,4,0,0.016,0.027,0.2,0.003,0.011,21.2,95.1,E,1.5
H02,2015,6,3,5,0,0.023,0.017,0.2,0.008,0.021,20.6,98.4,ESE,0.6
H02,2015,6,3,6,0,0.019,0.013,0.3,0.01,0.021,20.5,99.2,SE,0.5
H02,2015,6,3,7,0,0.012,0.016,0.3,0.009,0.02,20.4,97.7,SE,1.8
H02,2015,6,3,8,0,0.013,0.019,0.3,0.009,0.016,21.1,96.8,E,1.2
H02,2015,6,3,9,0,0.015,0.013,0.3,0.014,0.021,20.3,99,NNW,2.7
H02,2015,6,3,10,0,0.015,0.017,0.3,0.013,0.02,20.6,97.7,N,1.8
H02,2015,6,3,11,0,0.014,0.022,0.3,0.012,0.019,21.6,96.4,NW,1
H02,2015,6,3,12,0,0.009,0.025,0.3,0.013,0.023,23,87.3,WNW,2.1
H02,2015,6,3,13,0,0.016,0.027,0.3,0.008,0.023,23.7,82.7,NW,1.4
H02,2015,6,3,14,0,0.025,0.029,0.3,0.01,0.028,23.7,80.2,WNW,0.7
H02,2015,6,3,15,0.002,0.025,0.03,0.4,0.004,0.022,23.5,82,WSW,1.2
H02,2015,6,3,16,0.001,0.014,0.041,0.3,0.001,0.011,23.6,79.2,W,1
H02,2015,6,3,17,0.001,0.009,0.049,0.2,0,0.009,23.1,77.5,WSW,1.1
H02,2015,6,3,18,0.001,0.014,0.049,0.3,0.001,0.012,23,80.2,W,0.9
H02,2015,6,3,19,0.001,0.018,0.041,0.3,0.001,0.016,22.8,79,WNW,0.7
H02,2015,6,3,20,0.001,0.019,0.044,0.3,0.002,0.021,22.4,62.4,NW,2.7
H02,2015,6,3,21,0.001,0.022,0.057,0.3,0.003,0.016,21.4,59.3,NW,2.7
H02,2015,6,3,22,0,0.026,0.056,0.3,0.002,0.012,20.8,59.3,NW,2.6
H02,2015,6,3,23,0,0.021,0.05,0.3,0.003,0.017,20.3,56,NW,3.3
H02,2015,6,3,24,0,0.024,0.055,0.2,0.002,0.011,19.1,62.8,N,1.6
H02,2015,6,4,1,0,0.024,0.053,0.2,0.002,0.011,18.3,66.1,NW,2.4
H02,2015,6,4,2,0,0.023,0.051,0.2,0.002,0.011,17.8,65.5,NNW,2.5
H02,2015,6,4,3,0,0.02,0.047,0.2,0.001,0.011,17.2,65.2,NNW,2.1
H02,2015,6,4,4,0,0.017,0.044,0.2,0.002,0.012,16.9,62,NNW,2.7
H02,2015,6,4,5,0,0.009,0.039,0.2,0.004,0.015,16.5,61.6,NNW,2.5
H02,2015,6,4,6,0,0.013,0.033,0.2,0.006,0.017,17.1,57,NNW,2.9
H02,2015,6,4,7,0,0.011,0.032,0.2,0.01,0.017,19,47.2,NNW,3.1
H02,2015,6,4,8,0,0.013,0.035,0.2,0.007,0.012,21.4,37.8,NNW,4.5
H02,2015,6,4,9,0,0.009,0.04,0.2,0.007,0.009,22.2,38.6,NNW,5.3
H02,2015,6,4,10,0,0.007,0.042,0.2,0.007,0.009,23.7,36.1,NNW,5.7
H02,2015,6,4,11,0,0.012,0.044,0.2,0.008,0.008,23.4,36,NNW,6.3
H02,2015,6,4,12,0,0.015,0.045,0.2,0.008,0.01,25.6,32,NW,5.9
H02,2015,6,4,13,0,0.013,0.046,0.2,0.006,0.008,27.2,30.4,NW,4.6
H02,2015,6,4,14,0,0.013,0.046,0.2,0.007,0.011,27.8,29.8,NW,4.5
H02,2015,6,4,15,0,0.008,0.042,0.2,0.008,0.012,27.5,29.2,NW,5.1
H02,2015,6,4,16,0,0.005,0.041,0.2,0.008,0.011,27.3,29.5,NW,4.3
H02,2015,6,4,17,0,0.005,0.038,0.2,0.007,0.013,26,30.3,NW,4.5
H02,2015,6,4,18,0,0.006,0.036,0.2,0.006,0.012,24,32.8,WNW,3.1
H02,2015,6,4,19,0,0.005,0.033,0.2,0.004,0.013,22.6,38.1,NW,3.4
H02,2015,6,4,20,0,0.009,0.03,0.2,0.003,0.014,20.9,45.7,NW,3.1
H02,2015,6,4,21,0,0.006,0.031,0.2,0.005,0.012,19.8,47.9,NW,2.6
H02,2015,6,4,22,0,0.01,0.029,0.2,0.005,0.013,19.2,48.9,NW,3.4
H02,2015,6,4,23,0,0.002,0.032,0.2,0.004,0.009,18,56.9,N,1.8
H02,2015,6,4,24,0,0.011,0.029,0.2,0.003,0.012,17.7,57.1,NNW,1.8
H02,2015,6,5,1,0,0.012,0.027,0.2,0.003,0.013,17.3,59.5,NNW,1.6